Location: Unspecified
(0.0000°N, 0.0000°E)
Time: 22:57:15
(UTC+00:00)

Vanguard 1 - All Passes

Search period start: 19 November 2019 00:00
Search period end: 29 November 2019 00:00
Orbit: 652 x 3831 km, 34.2° (Epoch: 18 November)

Date Brightness Start Highest point End Pass type
(mag) Time Alt. Az. Time Alt. Az. Time Alt. Az.
19 Nov - 00:02:45 10° SW 00:13:21 17° S 00:26:19 10° SE visible
19 Nov - 02:29:51 10° SSW 02:47:45 27° SSE 03:04:41 10° ESE visible
19 Nov - 04:55:22 10° SW 05:18:16 57° SSE 05:33:36 10° ENE visible
19 Nov - 07:23:49 10° WSW 07:43:43 61° NW 07:54:51 10° NE daylight
19 Nov - 10:00:32 10° WNW 10:06:05 14° NW 10:10:30 10° NNW daylight
19 Nov - 17:14:00 10° NNW 17:18:31 30° NE 17:25:06 10° ESE daylight
19 Nov - 19:32:49 10° WNW 19:39:20 48° SSW 19:51:06 10° SE visible
19 Nov - 21:57:06 10° SW 22:05:09 20° SSW 22:16:40 10° SSE visible
20 Nov - 00:25:41 10° SSW 00:37:11 18° S 00:50:47 10° SE visible
20 Nov - 02:51:16 10° SSW 03:10:52 33° SSE 03:28:27 10° E visible
20 Nov - 05:16:48 10° SW 05:40:12 71° SE 05:55:11 10° ENE visible
20 Nov - 07:46:34 10° WSW 08:04:48 46° NW 08:15:22 10° NNE daylight
20 Nov - 17:34:19 10° NW 17:39:17 52° NE 17:47:18 10° ESE daylight
20 Nov - 19:54:26 10° W 20:01:02 34° SSW 20:12:09 10° SE visible
20 Nov - 22:20:23 10° SW 22:28:05 17° S 22:38:20 10° SSE visible
21 Nov - 00:47:58 10° SSW 01:00:59 20° SSE 01:15:54 10° SE visible
21 Nov - 03:12:29 10° SW 03:33:36 40° SSE 03:51:34 10° E visible
21 Nov - 05:38:24 10° SW 06:01:53 86° SE 06:16:29 10° NE daylight
21 Nov - 08:09:57 10° W 08:25:53 34° NW 08:35:40 10° NNE daylight
21 Nov - 17:54:59 10° NW 18:00:10 87° NE 18:08:59 10° SE visible
21 Nov - 20:16:31 10° WSW 20:22:58 25° SSW 20:33:03 10° SSE visible
21 Nov - 22:43:49 10° SSW 22:51:18 15° S 23:00:47 10° SSE visible
22 Nov - 01:09:41 10° SSW 01:24:35 23° SSE 01:41:04 10° ESE visible
22 Nov - 03:33:40 10° SW 03:56:02 49° SSE 04:14:08 10° ENE visible
22 Nov - 06:00:17 10° WSW 06:23:21 78° NW 06:37:30 10° NE daylight
22 Nov - 08:34:07 10° W 08:47:06 25° NW 08:55:43 10° N daylight
22 Nov - 15:58:33 10° N 16:01:18 15° NE 16:04:26 10° ENE daylight
22 Nov - 18:16:00 10° WNW 18:21:17 58° SSW 18:30:17 10° SE visible
22 Nov - 20:39:08 10° WSW 20:45:11 19° SSW 20:53:50 10° SSE visible
22 Nov - 23:06:55 10° SSW 23:14:46 15° S 23:24:25 10° SE visible
23 Nov - 01:31:00 10° SSW 01:47:50 27° SSE 02:05:47 10° ESE visible
23 Nov - 03:54:53 10° SW 04:18:11 60° SE 04:36:13 10° ENE visible
23 Nov - 06:22:33 10° WSW 06:44:41 62° NW 06:58:17 10° NE daylight
23 Nov - 08:59:17 10° WNW 09:08:32 17° NW 09:15:20 10° N daylight
23 Nov - 16:18:13 10° NNW 16:22:09 28° NE 16:27:14 10° E daylight
23 Nov - 18:37:23 10° W 18:42:40 37° SSW 18:51:18 10° SE visible
23 Nov - 21:02:21 10° SW 21:07:40 15° S 21:14:38 10° SSE visible
23 Nov - 23:29:17 10° SSW 23:38:20 16° SSE 23:49:24 10° SE visible
24 Nov - 01:52:07 10° SSW 02:10:43 34° SSE 02:29:50 10° E visible
24 Nov - 04:16:12 10° SW 04:40:06 73° SE 04:57:54 10° ENE visible
24 Nov - 06:45:17 10° WSW 07:05:58 49° NW 07:18:54 10° NNE daylight
24 Nov - 09:26:20 10° NW 09:30:17 11° NW 09:33:44 10° NNW daylight
24 Nov - 16:38:33 10° NW 16:42:58 53° NE 16:49:10 10° ESE daylight
24 Nov - 18:59:13 10° WSW 19:04:18 25° SSW 19:12:01 10° SSE visible
24 Nov - 21:26:08 10° SSW 21:30:26 12° S 21:35:36 10° SSE visible
24 Nov - 23:50:55 10° SSW 00:01:50 18° SSE 00:15:08 10° SE visible
25 Nov - 02:13:07 10° SSW 02:33:16 41° SSE 02:53:11 10° E visible
25 Nov - 04:37:43 10° SW 05:01:49 88° SE 05:19:15 10° NE visible
25 Nov - 07:08:39 10° W 07:27:17 37° NW 07:39:19 10° NNE daylight
25 Nov - 16:59:18 10° NW 17:03:53 83° SW 17:10:37 10° SE daylight
25 Nov - 19:21:38 10° WSW 19:26:10 18° SSW 19:32:26 10° SSE visible
25 Nov - 21:50:02 10° SSW 21:53:28 11° S 21:57:21 10° SSE visible
26 Nov - 00:12:06 10° SSW 00:25:05 22° SSE 00:40:50 10° ESE visible
26 Nov - 02:34:07 10° SW 02:55:32 51° SE 03:15:54 10° ENE visible
26 Nov - 04:59:30 10° WSW 05:23:25 77° NW 05:40:20 10° NE visible
26 Nov - 07:32:46 10° W 07:48:46 28° NW 07:59:33 10° NNE daylight
26 Nov - 15:02:16 10° N 15:04:57 15° NE 15:07:44 10° ENE daylight
26 Nov - 17:20:27 10° WNW 17:24:59 47° SSW 17:31:40 10° SE daylight
26 Nov - 19:44:56 10° SW 19:48:17 13° SSW 19:52:23 10° SSE visible
26 Nov - 22:12:44 10° S 22:16:41 11° S 22:21:11 10° SSE visible
27 Nov - 00:33:01 10° SSW 00:48:01 27° SSE 01:05:58 10° ESE visible
27 Nov - 02:55:11 10° SW 03:17:34 62° SE 03:38:07 10° ENE visible
27 Nov - 05:21:40 10° WSW 05:44:55 63° NW 06:01:13 10° NE visible
27 Nov - 07:57:50 10° WNW 08:10:29 21° NW 08:19:34 10° N daylight
27 Nov - 15:22:04 10° NNW 15:25:57 29° NE 15:30:13 10° E daylight
27 Nov - 17:42:02 10° W 17:46:18 28° SSW 17:52:20 10° SSE daylight
27 Nov - 22:34:00 10° S 22:39:57 13° SSE 22:47:02 10° SE visible
28 Nov - 00:53:49 10° SSW 01:10:36 33° SSE 01:30:19 10° E visible
28 Nov - 03:16:23 10° SW 03:39:25 75° SE 03:59:54 10° ENE visible
28 Nov - 05:44:18 10° WSW 06:06:25 50° NW 06:21:55 10° NNE daylight
28 Nov - 08:24:00 10° WNW 08:32:31 15° NNW 08:39:12 10° N daylight
28 Nov - 15:42:31 10° NW 15:46:52 58° NE 15:51:54 10° ESE daylight
28 Nov - 18:04:15 10° WSW 18:07:52 18° SSW 18:12:35 10° SSE visible
28 Nov - 22:54:43 10° S 23:03:06 16° SSE 23:13:33 10° SE visible
